Hulianwang W. Digui 10-04

operational
NORAD ID: 65308 Int'l Des: 2025-187 Owner: ZXW Country: CN Constellation: xingwang
LEOCIRCULAR

Über Hulianwang W. Digui 10-04

Beschreibung wird geladen...

Live-Position

3D-Globus wird geladen...

Nächste Überflüge

Höhenverlauf

Altitude vs Time

uPlot chart will show altitude changes over time

Zweizeiliger Elementsatz

1 65308U 25187D 25341.30516327 -.00000070 00000-0 11717-3 0 9995
2 65308 49.9988 174.2393 0000285 118.6792 241.4109 13.29328625 14174
Epoch: 7. Dez. 2025 • Age: 13 hours

Aktueller Status

Höhe 1154.7 km
Geschwindigkeit 7.28 km/s
Subsatellitenpunkt 50.14°N, 119.39°W
Startdatum 25. Aug. 2025
Alter 0.2 years
Typ other

Technische Details

Klassifizierung Payload
Masse 800.00 kg
Trockenmasse 800.00 kg
Gesamtmasse 800.00 kg
Länge 3.00 m
Durchmesser 1.00 m
Spannweite 10.00 m
Form Box + 2 Pan
Hersteller SECM
Bus-Typ Guowang S
Phasenstatus In Orbit
Besitzer/Staat ZXW/CN

Große Konstellationen

Loading constellations...